(188556) = 2004 TD62

Discovered at Anderson Mesa on 2004-10-05 by LONEOS.

Orbit

Orbit type: Main Belt

Note: WebGL enabled browser required.

epoch2024-03-31.0
epoch JD2460400.5
perihelion date2021-09-15.52822
perihelion JD2459473.02822
argument of perihelion (°)295.38296
ascending node (°)67.90701
inclination (°)3.88515
eccentricity0.1128757
perihelion distance (AU)2.8221678
Tisserand w.r.t. Jupiter3.2
ΔV w.r.t. Earth (km/sec)10.5
semimajor axis (AU)3.1812540
mean anomaly (°)161.10426
mean daily motion (°/day)0.17370260
aphelion distance (AU)3.540
period (years)5.67
P-vector [x]0.99642805
P-vector [y]0.07772039
P-vector [z]-0.03302553
Q-vector [x]-0.05647655
Q-vector [y]0.90407653
Q-vector [z]0.42362251
absolute magnitude15.83
phase slope0.15
uncertainty0
referenceMPEC 2024-E123
observations used403
oppositions16
arc length (days)8857
first opposition used1999
last opposition used2024
residual rms (arc-secs)0.75
perturbers coarse indicatorM-v
perturbers precise indicator003Ek
first observation date used1999-12-07.0
last observation date used2024-03-07.0
computer nameMPCLINUX
JD of orbit computation2456847.813570
perihelion JD uncertainty (days)1.8742E-04
argument of perihelion uncertainty (°)8.0134E-05
ascending node uncertainty (°)7.4492E-05
inclination uncertainty (°)7.4307E-06
eccentricity uncertainty 6.0430E-08
perihelion distance uncertainty (AU)2.1341E-07
Minimum Orbit Intersection Distances (in AU)
for orbit epoch: 2460400.5, reference: E2024-GD4
Mercury2.45562
Venus2.0958
Earth1.82274
Mars1.41935
Jupiter1.91088
Saturn5.78456
Uranus14.919
Neptune26.8746

Observations

412 total observations over interval: 1999 12 07.24315 – 2024 03 07.307172
These data are available for download (format description).

Date (UT) J2000 RA J2000 Dec Magn Location Ref
1999 12 07.24315 04 33 34.38 +22 17 52.2 19.8   704 – Lincoln Laboratory ETS, New Mexico MPS 252420
1999 12 07.27228 04 33 32.75 +22 17 52.5 20.2   704 – Lincoln Laboratory ETS, New Mexico MPS 252420
1999 12 07.28679 04 33 31.94 +22 17 51.5 20.0   704 – Lincoln Laboratory ETS, New Mexico MPS 252420
2004 09 12.24476 00 38 47.33 -01 47 10.1 19.7   704 – Lincoln Laboratory ETS, New Mexico MPS 120564
2004 09 12.25650 00 38 46.95 -01 47 13.7 19.5   704 – Lincoln Laboratory ETS, New Mexico MPS 120565
2004 09 12.26823 00 38 46.41 -01 47 15.6 19.5   704 – Lincoln Laboratory ETS, New Mexico MPS 120565
2004 09 12.27997 00 38 45.91 -01 47 19.2 19.7   704 – Lincoln Laboratory ETS, New Mexico MPS 120565
2004 09 14.33116 00 37 26.84 -01 56 00.8 19.2 R 699 – Lowell Observatory-LONEOS MPS 120565
2004 09 14.34738 00 37 26.14 -01 56 05.8   699 – Lowell Observatory-LONEOS MPS 120565
2004 09 14.36362 00 37 25.43 -01 56 09.8   699 – Lowell Observatory-LONEOS MPS 120565
2004 09 14.37984 00 37 24.76 -01 56 12.8   699 – Lowell Observatory-LONEOS MPS 120565
2004 10 05.23785 00 22 11.34 -03 23 00.1 19.2 R 699 – Lowell Observatory-LONEOS MPS 117759
2004 10 05.25813 00 22 10.44 -03 23 04.8   699 – Lowell Observatory-LONEOS MPS 117759
2004 10 05.27841 00 22 09.54 -03 23 11.2   699 – Lowell Observatory-LONEOS MPS 117759
2004 10 05.29870 00 22 08.63 -03 23 14.5   699 – Lowell Observatory-LONEOS MPS 117759
2004 10 07.27915 00 20 41.41 -03 30 14.8 19.5   704 – Lincoln Laboratory ETS, New Mexico MPS 117759
2004 10 07.28984 00 20 40.88 -03 30 15.5 19.8   704 – Lincoln Laboratory ETS, New Mexico MPS 117759
2004 10 07.30053 00 20 40.45 -03 30 19.4 19.9   704 – Lincoln Laboratory ETS, New Mexico MPS 117759
2004 10 07.32190 00 20 39.40 -03 30 22.7 19.8   704 – Lincoln Laboratory ETS, New Mexico MPS 117759
2005 11 30.44816 07 04 51.98 +24 56 00.5 20.4 V 691 – Steward Observatory, Kitt Peak-Spacewatch MPS 155311
2005 11 30.46558 07 04 51.43 +24 56 02.6 20.6 V 691 – Steward Observatory, Kitt Peak-Spacewatch MPS 155311
2005 11 30.48291 07 04 50.85 +24 56 04.8 20.7 V 691 – Steward Observatory, Kitt Peak-Spacewatch MPS 155311
2005 12 04.43192 07 02 37.60 +25 04 57.2 20.2 V 691 – Steward Observatory, Kitt Peak-Spacewatch MPS 155311
2005 12 04.44924 07 02 36.95 +25 04 59.3 20.6 V 691 – Steward Observatory, Kitt Peak-Spacewatch MPS 155311
2005 12 04.47000 07 02 36.18 +25 05 02.1 20.7 V 691 – Steward Observatory, Kitt Peak-Spacewatch MPS 155311
2005 12 08.43767 07 00 01.95 +25 14 09.0 20.6 V 691 – Steward Observatory, Kitt Peak-Spacewatch MPS 155929
2005 12 08.45502 07 00 01.18 +25 14 11.7 20.6 V 691 – Steward Observatory, Kitt Peak-Spacewatch MPS 155929
2005 12 08.47239 07 00 00.43 +25 14 13.9 20.6 V 691 – Steward Observatory, Kitt Peak-Spacewatch MPS 155929
2006 01 05.16607 06 36 23.29 +26 10 28.3 20.2 V 691 – Steward Observatory, Kitt Peak-Spacewatch MPS 157783
2006 01 05.18334 06 36 22.34 +26 10 29.7 20.4 V 691 – Steward Observatory, Kitt Peak-Spacewatch MPS 157783
2006 01 05.20065 06 36 21.35 +26 10 32.2 20.9 V 691 – Steward Observatory, Kitt Peak-Spacewatch MPS 157783
2007 03 19.28311 11 08 07.90 +11 18 36.5 20.2 V G96 – Mt. Lemmon Survey MPS 204591
2007 03 19.28912 11 08 07.65 +11 18 38.1 20.0 V G96 – Mt. Lemmon Survey MPS 204591
2007 03 19.29512 11 08 07.40 +11 18 39.2 20.0 V G96 – Mt. Lemmon Survey MPS 204591
2007 03 19.30124 11 08 07.11 +11 18 40.3 20.0 V G96 – Mt. Lemmon Survey MPS 204591
2008 04 11.38399 15 12 03.41 -15 25 50.9 21.1 V 691 – Steward Observatory, Kitt Peak-Spacewatch MPS 246744
2008 04 11.40161 15 12 02.76 -15 25 50.3 21.3 V 691 – Steward Observatory, Kitt Peak-Spacewatch MPS 246744
2008 04 11.41922 15 12 02.15 -15 25 47.2 20.8 V 691 – Steward Observatory, Kitt Peak-Spacewatch MPS 246744
2008 05 13.27602 14 49 03.68 -14 08 14.5 20.7 V G96 – Mt. Lemmon Survey MPS 249809
2008 05 13.28181 14 49 03.43 -14 08 13.7 20.6 V G96 – Mt. Lemmon Survey MPS 249809
2008 05 13.28768 14 49 03.14 -14 08 12.6 20.4 V G96 – Mt. Lemmon Survey MPS 249809
2008 05 13.29333 14 49 02.82 -14 08 11.9 20.1 V G96 – Mt. Lemmon Survey MPS 249809
2008 06 02.23726 14 35 33.57 -13 26 26.0 20.6 V G96 – Mt. Lemmon Survey MPS 250945
2008 06 02.24227 14 35 33.43 -13 26 25.7 21.1 V G96 – Mt. Lemmon Survey MPS 250945
2008 06 02.24721 14 35 33.21 -13 26 25.6 20.5 V G96 – Mt. Lemmon Survey MPS 250945
2008 06 02.25208 14 35 33.07 -13 26 24.6 21.2 V G96 – Mt. Lemmon Survey MPS 250945
2010 08 05.268233 02 42 21.91 +12 31 29.3   C51 – WISE MPS 344704
2010 08 05.400410 02 42 28.50 +12 31 57.5   C51 – WISE MPS 344704
2010 08 05.400537 02 42 28.51 +12 31 57.8   C51 – WISE MPS 344704
2010 08 05.532716 02 42 35.06 +12 32 26.4   C51 – WISE MPS 344704
2010 08 05.532844 02 42 35.14 +12 32 26.5   C51 – WISE MPS 344704
2010 08 05.665021 02 42 41.68 +12 32 54.9   C51 – WISE MPS 344704
2010 08 05.797324 02 42 48.31 +12 33 22.2   C51 – WISE MPS 344705
2010 08 05.863539 02 42 51.60 +12 33 37.2   C51 – WISE MPS 344705
2010 08 05.929628 02 42 54.82 +12 33 51.6   C51 – WISE MPS 344705
2010 08 05.995844 02 42 58.12 +12 34 05.4   C51 – WISE MPS 344705
2010 08 06.061932 02 43 01.41 +12 34 19.2   C51 – WISE MPS 344705
2010 08 06.12815 02 43 04.65 +12 34 33.6   C51 – WISE MPS 344705
2010 08 06.26045 02 43 11.17 +12 35 02.1   C51 – WISE MPS 344705
2010 08 06.392628 02 43 17.68 +12 35 29.2   C51 – WISE MPS 344705
2010 08 06.392756 02 43 17.69 +12 35 29.7   C51 – WISE MPS 344705
2010 08 06.52493 02 43 24.05 +12 35 56.2   C51 – WISE MPS 344705
2010 10 08.40418 02 54 31.17 +13 22 53.1 19.6 V 703 – Catalina Sky Survey MPS 350898
2010 10 08.41111 02 54 30.92 +13 22 52.5 19.6 V 703 – Catalina Sky Survey MPS 350898
2010 10 08.41811 02 54 30.60 +13 22 51.4 20.6 V 703 – Catalina Sky Survey MPS 350898
2010 10 08.42503 02 54 30.45 +13 22 52.0 19.8 V 703 – Catalina Sky Survey MPS 350898
2010 10 13.37184 02 51 34.65 +13 12 38.4 20.1   704 – Lincoln Laboratory ETS, New Mexico MPS 353492
2010 10 13.38571 02 51 34.10 +13 12 37.1 20.5   704 – Lincoln Laboratory ETS, New Mexico MPS 353492
2010 10 13.39987 02 51 33.59 +13 12 34.6 20.3   704 – Lincoln Laboratory ETS, New Mexico MPS 353492
2010 10 17.36868 02 48 53.64 +13 03 24.9 19.6 V G96 – Mt. Lemmon Survey MPS 353492
2010 10 17.37473 02 48 53.35 +13 03 23.9 19.7 V G96 – Mt. Lemmon Survey MPS 353492
2010 10 17.38079 02 48 53.06 +13 03 23.2 19.6 V G96 – Mt. Lemmon Survey MPS 353492
2010 10 17.38676 02 48 52.81 +13 03 22.3 19.5 V G96 – Mt. Lemmon Survey MPS 353492
2010 10 28.31502 02 40 30.50 +12 35 11.6 19.8 V 703 – Catalina Sky Survey MPS 353492
2010 10 28.32249 02 40 30.00 +12 35 09.2 19.2 V 703 – Catalina Sky Survey MPS 353492
2010 10 28.33006 02 40 29.64 +12 35 08.3 19.2 V 703 – Catalina Sky Survey MPS 353492
2010 10 28.33756 02 40 29.28 +12 35 08.2 19.4 V 703 – Catalina Sky Survey MPS 353492
2010 11 02.437381 02 36 17.734 +12 21 25.64 19.89 w F51 – Pan-STARRS 1, Haleakala MPS 365182
2010 11 02.451123 02 36 17.023 +12 21 23.39 19.86 w F51 – Pan-STARRS 1, Haleakala MPS 365182
2010 11 02.466344 02 36 16.238 +12 21 20.95 19.89 w F51 – Pan-STARRS 1, Haleakala MPS 365182
2010 11 02.478938 02 36 15.589 +12 21 18.88 19.85 w F51 – Pan-STARRS 1, Haleakala MPS 365182
2010 11 04.25913 02 34 47.49 +12 16 35.5 19.8   704 – Lincoln Laboratory ETS, New Mexico MPS 355080
2010 11 04.27167 02 34 46.73 +12 16 32.1 20.0   704 – Lincoln Laboratory ETS, New Mexico MPS 355080
2010 11 04.28425 02 34 46.08 +12 16 30.7 19.9   704 – Lincoln Laboratory ETS, New Mexico MPS 355080
2010 11 04.29682 02 34 45.46 +12 16 29.0 20.4   704 – Lincoln Laboratory ETS, New Mexico MPS 355080
2010 11 04.84986 02 34 18.21 +12 15 00.2 19.0 V J75 – OAM Observatory, La Sagra MPS 357215
2010 11 04.86278 02 34 17.66 +12 14 58.5 19.1 V J75 – OAM Observatory, La Sagra MPS 357215
2010 11 04.87569 02 34 16.97 +12 14 57.1 19.2 V J75 – OAM Observatory, La Sagra MPS 357215
2010 11 05.22912 02 33 59.43 +12 14 02.3 19.7   704 – Lincoln Laboratory ETS, New Mexico MPS 357215
2010 11 05.24155 02 33 58.70 +12 13 59.8 20.0   704 – Lincoln Laboratory ETS, New Mexico MPS 357215
2010 11 05.26642 02 33 57.33 +12 13 56.8 19.8   704 – Lincoln Laboratory ETS, New Mexico MPS 357215
2010 11 09.25193 02 30 42.19 +12 03 46.1 19.6 V 703 – Catalina Sky Survey MPS 357215
